FENGYUN 1C DEB, 31716

Orbit data source: Space-Track

FENGYUN 1C DEB, 31716 is space debris in SSO originally from a launch on Mon, 10 May 1999 UTC launched from the Taiyaun Space Center, China (TSC). Fengyun 1C debris stems from the Chinese weather satellite Fengyun-1C, which was intentionally destroyed by a Chinese anti-satellite missile in 2007. This event dramatically increased the amount of space debris, with thousands of trackable fragments posing hazards to satellites and human spaceflight. The Fengyun 1C debris cloud has become a focal point in discussions about space sustainability and the need for international regulations to prevent the creation of new debris.

Loading next visibility...
Identifier
31716, 1999-025CDP
Orbit
SSO
Country
Flag of CNCN / PRC
Related business
Manufacturer
Unknown
Mission
Spacecraft
Bus & Motor
Unknown
Mass
Unknown
Launch date (UTC)
1999-05-10 (27 years ago)
Launch vehicle
Unknown
Launch site
Taiyaun Space Center, China (TSC)
Object type
Payload
Rocket body
Debris
Shape & HBR
Unknown shape, 0.1 m
Radar Cross Section
Medium (>0.1 m² and <1 m²)

Expand to show TLE details & history
Last TLE update: 6 days ago

TLE from 6 days ago
0 FENGYUN 1C DEB
1 31716U 99025CDP 26161.51169304  .00001674  00000-0  10001-2 0  9990
2 31716  98.5460  55.0013 0128780 306.8435 177.2042 14.04428825966429
Epoch: 2026-06-10T12:16Z
TLE epoch observation values (Epoch: 2026-06-10T12:16:50.278Z)
Latitude
55.05158°
Longitude
164.27452°
Altitude
980.942 km
Speed
7.319 km/s
True Right ascension
16h 29m 24s
True Declination
54° 53' 41"
Sunlit
Object was in daylight at epoch
Visualization orbit readout
Latitude
Unknown
Longitude
Unknown
Altitude
Unknown
Speed
Unknown
Apparent Right ascension
Unknown
Apparent Declination
Unknown
Sunlit
N/A
Visualization observer readout
Local Sidereal Time
23:24:51
Azimuth
Unknown
Elevation
Unknown
Doppler factor
Unknown
Orbital elements
Apogee altitude
969.085 km
Perigee altitude
782.256 km
Semi-major axis
7,253.807 km
Eccentricity
0.01288
Inclination
98.546°
RAAN
55.0013°
Arg. of periapsis
306.8435°
True anomaly
177.27504°
Mean anomaly
177.2042°
Eccentric anomaly
177.23973°
Mean motion
3.51313 °/min
Orbital period
102.47 mins
BSTAR
0.0010001
Loading maneuver chart data...
Computing Atmospheric mass density...

Documentation

Showing up to 5 results
|